Location: Ward Pound Ridge Reservation
(41.2500°N, 73.6000°W)
Time: 17:13:59
(UTC-04:00)

Tiangong 2 - Pass Details

Date: 11 October 2017
Orbit: 388 x 391 km, 42.8° (Epoch: 22 October)

Event Time Altitude Azimuth Distance (km) Brightness Sun altitude
Exits shadow 04:38:47 17° 97° (E) 1,077 4.0 -27.5°
Drops below altitude 10° 04:39:45 10° 88° (E) 1,421 4.9 -27.3°
Sets 04:41:57 0° 78° (ENE) 2,279 6.3 -26.9°
